Location: C�an Torras
(41.5052°N, 1.9280°E)
Time: 21:30:33
(UTC+00:00)

Envisat - Pass Details

Date: 20 January 2021
Orbit: 764 x 766 km, 98.1° (Epoch: 03 March)

Event Time Altitude Azimuth Distance (km) Brightness Sun altitude
Rises 17:14:57 0° 182° (S) 3,217 6.6 -4.5°
Reaches altitude 10° 17:17:20 10° 188° (S) 2,296 5.9 -4.9°
Maximum altitude 17:22:12 46° 261° (W) 1,021 4.3 -5.7°
Drops below altitude 10° 17:27:05 10° 335° (NNW) 2,312 5.6 -6.6°
Sets 17:29:30 0° 341° (NNW) 3,243 6.2 -7.0°
